Location: Mannheim
(49.4880°N, 8.4650°E)
Time: 15:38:20
(UTC+02:00)

ACS3 Solar Sail - Visible Passes

Search period start: 20 September 2024 00:00
Search period end: 30 September 2024 00:00
Orbit: 970 x 1036 km, 97.4° (Epoch: 19 September)

Date Brightness Start Highest point End Pass type
(mag) Time Alt. Az. Time Alt. Az. Time Alt. Az.
20 Sep 2.1 20:48:35 12° SE 20:54:15 51° ENE 21:00:26 10° N visible
20 Sep 3.2 22:33:50 15° SSW 22:38:28 34° W 22:44:16 10° NNW visible
21 Sep 1.8 21:21:56 17° SSE 21:27:00 83° ENE 21:33:26 10° NNW visible
21 Sep 4.0 23:07:11 10° SW 23:11:45 20° W 23:16:21 10° NW visible
22 Sep 2.7 20:10:46 10° ESE 20:16:13 31° ENE 20:21:40 10° N visible
22 Sep 2.3 21:55:14 19° S 21:59:52 60° W 22:06:13 10° NNW visible
22 Sep 4.5 23:43:38 10° W 23:45:12 11° WNW 23:46:47 10° WNW visible
23 Sep 2.2 20:43:14 13° SE 20:48:41 49° ENE 20:54:47 10° N visible
23 Sep 3.2 22:28:28 17° SSW 22:32:51 36° W 22:38:41 10° NNW visible
24 Sep 1.8 21:16:26 19° SSE 21:21:17 80° ENE 21:27:40 10° N visible
24 Sep 3.9 23:01:39 11° SW 23:05:58 21° W 23:10:41 10° NW visible
25 Sep 2.8 20:05:01 10° ESE 20:10:23 29° ENE 20:15:43 10° N visible
25 Sep 2.2 21:49:34 21° S 21:53:58 63° W 22:00:19 10° NNW visible
25 Sep 4.4 23:37:08 10° W 23:39:14 12° W 23:41:20 10° WNW visible
26 Sep 2.2 20:37:27 14° SE 20:42:41 47° ENE 20:48:42 10° N visible
26 Sep 3.1 22:22:40 19° SSW 22:26:47 38° W 22:32:40 10° NNW visible
27 Sep 1.8 21:10:30 20° SSE 21:15:06 76° ENE 21:21:28 10° N visible
27 Sep 3.8 22:55:42 13° SW 22:59:43 22° W 23:04:35 10° NW visible
28 Sep 2.8 19:58:52 10° ESE 20:04:06 28° ENE 20:09:18 10° N visible
28 Sep 2.1 21:43:29 23° S 21:47:37 67° W 21:53:58 10° NNW visible
28 Sep 4.4 23:30:15 10° WSW 23:32:48 12° W 23:35:22 10° NW visible
29 Sep 2.3 20:31:13 15° SE 20:36:14 44° ENE 20:42:11 10° N visible
29 Sep 3.0 22:16:26 21° SSW 22:20:16 40° W 22:26:12 10° NNW visible
